San Nicolas Island, CA

11:15 AM PDT on June 25, 2017 (GMT -0700)
San Nicolas Island Naval Outlying Field

Weather History for KNSI - December, 2011

Change the Weather History Date:

Friday, December 2, 2011

  Actual Average Record
Temperature  
Mean Temperature 56 °F -  
Max Temperature 63 °F 60 °F 82 °F (2012)
Min Temperature 48 °F 50 °F 44 °F (2004)
Degree Days  
Heating Degree Days 10    
Growing Degree Days 6 (Base 50)    
Moisture  
Dew Point 36 °F    
Average Humidity 50    
Maximum Humidity 83    
Minimum Humidity 31    
Precipitation  
Precipitation 0.00 in - - ()
Sea Level Pressure  
Sea Level Pressure 29.96 in    
Wind  
Wind Speed 7 mph (SW)    
Max Wind Speed 16 mph    
Max Gust Speed -    
Visibility 9 miles    
Events      
Averages and records for this station are not official NWS values.
T = Trace of Precipitation, MM = Missing Value Source: NWS Daily Summary

Daily Weather History Graph

Daily Weather History Graph

Search for Another Location

Airport or City:

Trip Planner

Search our weather history database for the weather conditions in past years. The results will help you decide how hot, cold, wet, or windy it might be!

Date:

Astronomy

Dec. 02, 2011 Rise Set
Actual Time 6:44 AM PST 4:50 PM PST
Civil Twilight 6:16 AM PST 5:17 PM PST
Nautical Twilight 5:46 AM PST 5:48 PM PST
Astronomical Twilight 5:16 AM PST 6:18 PM PST
Moon 12:13 PM PST (12/2) No Moon Set
Length of Visible Light 11h 00m
Length of Day
10h 06m
First Quarter, 54% of the Moon is Illuminated
Dec 2
First Quarter
Dec 10
Full
Dec 17
Last Quarter
Dec 24
New
Dec 31
First Quarter

Hourly Weather History & Observations

Time (PST) Temp. Dew Point Humidity Pressure Visibility Wind Dir Wind Speed Gust Speed Precip Events Conditions
12:53 AM 53.1 °F 37.0 °F 55% 29.92 in 10.0 mi North - - N/A   Clear
1:53 AM 52.0 °F 41.0 °F 66% 29.94 in 10.0 mi North - - N/A   Clear
2:53 AM 51.1 °F 37.0 °F 59% 29.93 in 10.0 mi North - - N/A   Clear
3:53 AM 48.0 °F 37.0 °F 66% 29.94 in 10.0 mi North - - N/A   Clear
4:53 AM 52.0 °F 34.0 °F 50% 29.95 in 10.0 mi North - - N/A   Clear
5:53 AM 52.0 °F 35.1 °F 53% 29.96 in 7.0 mi Calm Calm - N/A   Clear
6:53 AM 54.0 °F 36.0 °F 51% 29.98 in 7.0 mi Calm Calm - N/A   Clear
7:53 AM 55.9 °F 37.9 °F 51% 29.99 in 7.0 mi South 6.9 mph - N/A   Clear
8:53 AM 59.0 °F 36.0 °F 42% 30.00 in 7.0 mi South 11.5 mph - N/A   Clear
9:53 AM 61.0 °F 37.0 °F 41% 30.01 in 7.0 mi South 8.1 mph - N/A   Clear
10:53 AM 63.0 °F 34.0 °F 34% 30.01 in 7.0 mi SW 13.8 mph - N/A   Clear
11:53 AM 62.1 °F 35.1 °F 37% 30.00 in 7.0 mi SW 13.8 mph - N/A   Clear
12:53 PM 62.1 °F 33.1 °F 34% 29.98 in 7.0 mi WSW 15.0 mph - N/A   Clear
1:53 PM 62.1 °F 34.0 °F 35% 29.96 in 7.0 mi SW 16.1 mph - N/A   Partly Cloudy
2:53 PM 62.1 °F 30.9 °F 31% 29.97 in 7.0 mi SW 15.0 mph - N/A   Scattered Clouds
3:53 PM 57.9 °F 37.9 °F 47% 29.96 in 7.0 mi West 11.5 mph - N/A   Scattered Clouds
4:53 PM 54.0 °F 28.0 °F 37% 29.96 in 10.0 mi North - - N/A   Clear
5:53 PM 54.0 °F 28.9 °F 38% 29.95 in 10.0 mi North - - N/A   Clear
6:53 PM 53.1 °F 27.0 °F 37% 29.96 in 10.0 mi North - - N/A   Clear
7:53 PM 53.1 °F 33.1 °F 47% 29.96 in 10.0 mi North - - N/A   Clear
8:53 PM 53.1 °F 39.0 °F 59% 29.96 in 10.0 mi North - - N/A   Clear
9:53 PM 52.0 °F 45.0 °F 77% 29.95 in 10.0 mi North - - N/A   Clear
10:53 PM 51.1 °F 44.1 °F 77% 29.96 in 10.0 mi North - - N/A   Clear
11:53 PM 50.0 °F 45.0 °F 83% 29.95 in 10.0 mi North - - N/A   Clear